Location: Academy at Carrie F Thomas
(32.8490°N, 97.2053°W)
Time: 07:49:08
(UTC+00:00)

Cosmos 1515 Rocket - Pass Details

Date: 04 July 2022
Orbit: 604 x 630 km, 82.5° (Epoch: 14 August)

Event Time Altitude Azimuth Distance (km) Brightness Sun altitude
Rises 08:50:40 0° 2° (N) 2,889 7.9 -25.4°
Reaches altitude 10° 08:53:00 10° 9° (N) 1,976 7.0 -25.1°
Maximum altitude 08:57:09 41° 80° (E) 883 4.6 -24.6°
Enters shadow 08:58:36 31° 125° (SE) 1,076 4.7 -24.4°
